TimeEDT,TemperatureF,Dew PointF,Humidity,Sea Level PressureIn,VisibilityMPH,Wind Direction,Wind SpeedMPH,Gust SpeedMPH,PrecipitationIn,Events,Conditions,WindDirDegrees,DateUTC
12:53 AM,66.0,55.9,70,29.89,10.0,WSW,6.9,-,N/A,,Mostly Cloudy,240,2013-09-08 04:53:00
1:53 AM,66.0,57.9,75,29.87,10.0,Variable,4.6,-,N/A,,Overcast,0,2013-09-08 05:53:00
2:53 AM,64.9,59.0,81,29.86,10.0,WSW,4.6,-,0.00,Rain,Light Rain,250,2013-09-08 06:53:00
3:53 AM,66.0,60.1,81,29.84,10.0,WSW,5.8,-,0.00,,Overcast,240,2013-09-08 07:53:00
4:53 AM,66.9,60.1,79,29.82,10.0,SW,6.9,-,N/A,,Mostly Cloudy,220,2013-09-08 08:53:00
5:53 AM,66.9,62.1,84,29.80,10.0,SW,8.1,-,N/A,,Overcast,220,2013-09-08 09:53:00
6:53 AM,66.0,62.1,87,29.81,10.0,SW,6.9,-,N/A,,Clear,230,2013-09-08 10:53:00
7:53 AM,70.0,61.0,73,29.80,10.0,WSW,8.1,-,N/A,,Clear,250,2013-09-08 11:53:00
8:53 AM,72.0,60.1,66,29.79,10.0,West,13.8,19.6,N/A,,Clear,260,2013-09-08 12:53:00
9:53 AM,73.9,61.0,64,29.78,10.0,WSW,12.7,20.7,N/A,,Partly Cloudy,250,2013-09-08 13:53:00
10:53 AM,72.0,60.1,66,29.77,10.0,West,8.1,19.6,N/A,,Mostly Cloudy,270,2013-09-08 14:53:00
11:53 AM,75.0,60.1,60,29.76,10.0,West,8.1,19.6,N/A,,Scattered Clouds,260,2013-09-08 15:53:00
12:53 PM,75.9,60.1,58,29.77,10.0,West,12.7,20.7,N/A,,Mostly Cloudy,270,2013-09-08 16:53:00
1:53 PM,73.0,60.1,64,29.77,10.0,West,9.2,-,N/A,,Mostly Cloudy,260,2013-09-08 17:53:00
2:53 PM,80.1,59.0,48,29.77,10.0,NNW,10.4,17.3,N/A,,Partly Cloudy,330,2013-09-08 18:53:00
3:53 PM,73.9,59.0,59,29.79,10.0,NNE,10.4,20.7,N/A,,Mostly Cloudy,20,2013-09-08 19:53:00
4:53 PM,73.0,57.0,57,29.82,10.0,NNE,13.8,18.4,N/A,,Mostly Cloudy,30,2013-09-08 20:53:00
5:53 PM,71.1,51.1,49,29.86,10.0,NE,9.2,-,N/A,,Mostly Cloudy,50,2013-09-08 21:53:00
6:53 PM,64.9,48.0,54,29.90,10.0,NNE,12.7,19.6,N/A,,Clear,30,2013-09-08 22:53:00
7:53 PM,63.0,45.0,52,29.95,10.0,North,11.5,-,N/A,,Clear,360,2013-09-08 23:53:00
8:53 PM,62.1,44.1,52,29.99,10.0,North,10.4,-,N/A,,Clear,10,2013-09-09 00:53:00
9:53 PM,61.0,41.0,48,30.03,10.0,NNE,15.0,23.0,N/A,,Clear,20,2013-09-09 01:53:00
10:53 PM,59.0,41.0,51,30.07,10.0,North,10.4,-,N/A,,Clear,10,2013-09-09 02:53:00
11:53 PM,57.0,41.0,55,30.08,10.0,North,9.2,-,N/A,,Clear,10,2013-09-09 03:53:00